Погода в Днепропетровске

Погода в Днепропетровске : погода сейчас, прогноз погоды и архив. Всё, что Вы хотите узнать о погоде в Днепропетровске!

Хотите узнать прогноз погоды в Днепропетровске? Тогда Вам сюда: Погода в Днепропетровске

Поиск расширенной информации на нашем сайте:

Другие новости

Новости СМИ2

Главная страница сайта

Новости сайта

03.07.2017

Напоминаем, что на нашем специализированном сайте Метеоцентр.Азия вы можете получить высокодетализированные автоматические прогнозы погоды по пунктам России, СНГ и мира в авиационном формате (включающие направление и скорость ветра, видимость, явления погоды, количество и форму облачности, нижнюю и верхнюю границу облачности).

Рекомендуем: Подольск и ремонт ноутбуков Щербинка. Ремонт ноутбуков в Подольске лучшие цены в Москве.

Погода в Днепропетровске - сегодня

Время (UTC), дата Ветер
(°,м/с) 
Видим.   Явления Облачность Т
(°С)
Тd
(°С)
f(%) Тe
(°С)
Pmin
(гПа)
dP
(гПа)
Po
(мм)
O2
(г/м3)
Тmin Tmax R s Состояние
почвы
21 19.07.17 360 (С) 10 км    ясно 
+19.2 +12.4 65 +25  1014.9  -0.4  748  279           
00 20.07.17 020 (С) 10 км    ясно 
+17.8 +13.8 77 +25  1015  748  280           
03 20.07.17 360 (С) 10 км    3/0 верхняя 
[Ci]
+16.6 +14 85 +25  1014.5  -0.5  748  281           
06 20.07.17 020 (С) 10 км    3/0 верхняя 
[Ci fib]
+23.7 +16.7 65 +36  1014.3  0.2  748  274  +16.6         
09 20.07.17 040 (СВ) 10 км    4/4 1500 м 
[Cu hum]
+29.3 +14.3 40 +37  1013.8  -0.2  748  269           
12 20.07.17 010 (С) 10 км    6/6 1500 м 
[Cu med, cong]
+30.9 +10.9 29 +33  1012.3  -1.4  747  268           
15 20.07.17 350 (С) 10 км    4/4 1500 м 
[Cu hum]
+28.5 +13.9 41 +35  1011.9  -0.5  747  270           
18 20.07.17 360 (С) 10 км    3/0 средняя 
[Ac trans]
+22.6 +13.5 56 +29  1012.8  0.5  747  275    +31.8       
21 20.07.17 020 (С) 10 км    ясно 
+20 +13.8 67 +27  1013.3  0.4  747  278           
00 21.07.17 тихо ()   10 км    ясно 
+18 +13.2 74 +24  1013.6  0.1  747  280           
03 21.07.17 010 (С) 10 км    3/0 средняя 
[Ac trans]
+16.9 +13.4 80 +23  1014.2  0.6  748  281           
06 21.07.17 350 (С) 10 км    ясно 
+26.1 +14.2 48 +33  1014.4  0.7  748  272  +16.7         
09 21.07.17 060 (СВ) 10 км    ясно 
+30.5 +12.7 34 +35  1014.6  0.4  749  269           
12 21.07.17 050 (СВ) 10 км    3/3 1500 м 
[Cu hum]
+32.3 +13.3 32 +38  1013.8  -0.7  748  267           
15 21.07.17 050 (СВ) 10 км    3/3 1500 м 
[Cu hum]
+31.3 +14.5 36 +39  1013.2  -0.6  748  267        697   
18 21.07.17 100 (В) 10 км    ясно 
+25.2 +13 47 +31  1014.2  0.6  748  273           
21 21.07.17 150 (ЮВ) 10 км    ясно 
+23.5 +13.8 54 +30  1014.1  -0.1  748  275           
00 22.07.17 350 (С) 10 км    ясно 
+20 +14.9 72 +29  1014  -0.3  748  278           
03 22.07.17 тихо ()   10 км    ясно 
+19.3 +14.1 72 +27  1014.3  0.2  748  279           
06 22.07.17 270 (З) 10 км    ясно 
+27.1 +15.1 48 +36  1014.3  0.5  748  271  +18.9  +4       
09 22.07.17 180 (Ю) 10 км    ясно 
+32 +13.3 32 +38  1013.5  -0.6  748  267           
12 22.07.17 060 (СВ) 10 км    5/5 1500 м 
[Cu med, cong]
+32.1 +15 36 +41  1012.1  -1.3  747  266           
15 22.07.17 тихо ()   10 км    8/8 1500 м 
[Cu med, cong]
+30.7 +14.5 37 +39  1011.3  -0.9  746  267           
18 22.07.17 180 (Ю) 10 км    8/0 средняя 
[Ac cuf]
+27 +13.4 43 +33  1011.7  0.2  746  271    +33.5       
21 22.07.17 040 (СВ) 10 км  в посл. час гроза{ливн. осадки}  8/8 1000 м кучево-дожд. 
[Cb calv]
+23.8 +15.4 59 +33  1011.4  -0.5  746  273           
Время (UTC), дата Ветер
(°,м/с) 
Видим.   Явления Облачность Т
(°С)
Тd
(°С)
f(%) Тe
(°С)
Pmin
(гПа)
dP
(гПа)
Po
(мм)
O2
(г/м3)
Тmin Tmax R s Состояние
почвы

Для получения пояснительной информации подведите курсор к названию столбца.

ПОГОДА в Днепропетровске - архив

Всё, что Вы хотите узнать о погоде в Днепропетровске - удобно и подробно!

Выберите нужную дату (начиная с 1 января 2015* года) и нажмите кнопку "Найти".
Будут отображены архивные сводки погоды по пункту Днепропетровск, начиная с указанной даты.


Отображать данные в формате CSV (для использования в таблицах Excel)


Внимание! Наш архив погоды предназначен исключительно для личного некоммерческого использования в познавательных целях. Если Вам необходимы официальные справки о состоянии погоды (для производственных, юридических, коммерческих и т.п. целей), обращайтесь в органы Росгидромета.

*Примечание: данная дата относится к архиву по метеостанциям СССР (Россия, СНГ, Балтия).
Архив по метеостанциям Зарубежной Европы и Азии (кроме Китая) хранится 10 дней, по другим регионам земного шара (Китай, Африка, Америка, Австралия, Океания) - 1 день.

Днепропетровск - район местоположения метеостанции


Название, широта, долгота, высота метеостанции:
Днепропетровск (Кайдаки) 48.6°ш. 35°д. 143 м над ур. моря [Украина]

Дополнительная информация

В oтличие oт бoльшинства пoгoдных сайтoв мы публикуем пoдрoбную метеoинфoрмацию в детальнoм прoфессиoнальнoм фoрмате.

Характеристики температуры и влажнoсти вoздуха измеряются на высoте 2 м в тени вдали oт зданий и деревьев.
Скoрoсть ветра измеряется на высoте 10 м (на урoвне рoста челoвека скoрoсть ветра ниже в 1.5-2 раза). Если метеoстанция нахoдится в гoрoде или в лесу, тo скoрoсть ветра занижена на 2-4 м/с пo сравнению с oткрытым местoм. Скoрoсть ветра над акватoриями крупных рек и oзёр, а также на вершинах хoлмoв на 2-5 м/с выше, чем в oбычных услoвиях.
Атмoсфернoе давление в разных тoчках местнoсти мoжет значительнo oтличаться oт давления на метеoстанции, в зависимoсти oт услoвий рельефа (при пoдъёме на 10 м давление пoнижается примернo на 1 мм рт.ст.).